www.pogodaiklimat.ru

Погода и климат >> Архив погоды >> Австралия >> Onslow Airport


ПОГОДА в Onslow Airport

  • Прогноз погоды в Onslow Airport
  • Монитор погоды в Onslow Airport
  • Климат города

АРХИВ ПОГОДЫ в Onslow Airport

Время (UTC), дата Ветер
(напр.,м/с)
 
Видим.   Явления Облачность Т
(С)
Тd
(С)
f
(%)
Тe
(С)
Тes
(С)
Комфортность P
(гПа)
Po
(гПа)
Тmin
(С)
Tmax
(С)
R
(мм)
S
(см)
04 17.03 С 9 н/о н/о +32.6 +23.0 57 +43 +43 опасность
перегрева
1012.3 1011.1
06 17.03 СЗ 4 н/о н/о +33.4 +22.5 53 +43 +43 опасность
перегрева
1009.7 1008.5
07 17.03 СЗ 5 н/о н/о +33.5 +22.9 54 +44 +44 опасность
перегрева
1009.1 1007.9
09 17.03 З 5 н/о н/о +30.1 +24.3 71 +42 +42 опасность
перегрева
1009.8 1008.6
10 17.03 З 5 н/о н/о +28.9 +25.1 80 +42 +42 опасность
перегрева
1010.0 1008.8
12 17.03 З 5 н/о н/о +28.1 +24.5 81 +40 +40 очень
душно
1010.8 1009.6
13 17.03 З 4 н/о н/о +27.7 +24.1 81 +39 +39 очень
душно
1011.5 1010.3 +34.5
15 17.03 З 3 н/о н/о +26.8 +23.9 84 +37 +37 очень
душно
1011.8 1010.6
16 17.03 З 3 н/о н/о +26.6 +23.9 85 +37 +37 очень
душно
1011.7 1010.5
18 17.03 ЮЗ 4 н/о н/о +26.4 +20.0 68 +32 +32 очень
душно
1011.7 1010.5
19 17.03 ЮЗ 5 н/о н/о +26.4 +18.5 62 +31 +31 душно 1011.5 1010.3
21 17.03 ЮЗ 6 н/о н/о +25.4 +18.6 66 +30 +30 душно 1011.6 1010.4
22 17.03 ЮЗ 7 н/о н/о +25.3 +18.7 67 +30 +30 душно 1011.8 1010.6
00 18.03 Ю 7 н/о н/о +27.3 +19.1 61 +33 +33 очень
душно
1012.8 1011.6
01 18.03 Ю 6 н/о н/о +30.8 +18.8 49 +36 +36 очень
душно
1012.8 1011.6 +25.3
03 18.03 ЮВ 4 н/о н/о +36.4 +19.4 37 +41 +41 опасность
перегрева
1011.6 1010.4
04 18.03 Ю 3 н/о н/о +38.2 +18.1 31 +42 +42 опасность
перегрева
1010.8 1009.6
06 18.03 З 7 н/о н/о +37.9 +23.1 43 +48 +48 опасность
перегрева
1009.2 1008.0
07 18.03 Ю 4 н/о н/о +40.2 +18.7 29 +44 +44 опасность
перегрева
1008.6 1007.4
09 18.03 ЮЗ 5 н/о н/о +39.6 +17.7 28 +43 +43 опасность
перегрева
1008.8 1007.6
10 18.03 ЮЗ 7 н/о н/о +36.7 +17.8 33 +40 +40 очень
душно
1009.5 1008.3
12 18.03 Ю 4 н/о н/о +32.2 +21.7 54 +41 +41 опасность
перегрева
1011.0 1009.8
13 18.03 Ю 4 н/о н/о +32.1 +21.3 53 +40 +40 очень
душно
1011.7 1010.5 +40.7
15 18.03 Ю 8 н/о н/о +31.0 +17.7 45 +35 +35 очень
душно
1012.2 1011.0
16 18.03 Ю 8 н/о н/о +30.1 +17.5 47 +34 +34 очень
душно
1011.7 1010.5
18 18.03 Ю 6 н/о н/о +28.7 +16.9 49 +32 +32 душно 1010.8 1009.6
19 18.03 Ю 6 н/о н/о +28.1 +17.0 51 +32 +32 душно 1010.6 1009.4
21 18.03 Ю 7 н/о н/о +26.9 +16.8 54 +31 +31 душно 1010.2 1009.0
22 18.03 Ю 6 н/о н/о +26.5 +16.7 55 +30 +30 душно 1010.4 1009.2
00 19.03 Ю 8 н/о н/о +27.8 +16.1 49 +31 +31 душно 1011.2 1010.0
01 19.03 Ю 7 н/о н/о +30.2 +16.9 45 +34 +34 очень
душно
1011.3 1010.1 +26.1
03 19.03 Ю 6 н/о н/о +35.8 +18.8 37 +40 +40 очень
душно
1010.5 1009.3
04 19.03 Ю 5 н/о н/о +37.5 +19.0 34 +42 +42 опасность
перегрева
1009.7 1008.5
06 19.03 Ю 6 н/о н/о +40.2 +17.0 26 +43 +43 опасность
перегрева
1007.9 1006.7
07 19.03 Ю 7 н/о н/о +40.1 +17.5 27 +43 +43 опасность
перегрева
1007.5 1006.3
09 19.03 Ю 7 н/о н/о +39.3 +16.8 27 +42 +42 опасность
перегрева
1007.2 1006.0
10 19.03 Ю 5 н/о н/о +37.6 +17.1 30 +40 +40 очень
душно
1007.4 1006.2
12 19.03 ЮЗ 4 н/о н/о +33.9 +18.8 41 +39 +39 очень
душно
1009.3 1008.1
13 19.03 ЮЗ 4 н/о н/о +33.4 +18.0 40 +38 +38 очень
душно
1009.6 1008.4 +41.0
15 19.03 ЮЗ 4 н/о н/о +31.0 +18.7 48 +36 +36 очень
душно
1009.7 1008.5
16 19.03 ЮЗ 6 н/о н/о +30.6 +17.3 45 +35 +35 очень
душно
1009.1 1007.9
18 19.03 ЮЗ 7 н/о н/о +29.1 +15.2 43 +32 +32 душно 1008.1 1006.9
19 19.03 Ю 6 н/о н/о +28.4 +15.7 46 +31 +31 душно 1007.9 1006.7
21 19.03 Ю 4 н/о н/о +26.8 +15.8 51 +30 +30 душно 1007.6 1006.4
22 19.03 Ю 4 н/о н/о +26.4 +15.4 51 +29 +29 жарко 1007.9 1006.7
00 20.03 ЮВ 3 н/о н/о +29.2 +16.0 45 +32 +32 душно 1008.6 1007.4
01 20.03 ЮВ 3 н/о н/о +32.3 +17.7 42 +36 +36 очень
душно
1008.8 1007.6 +26.0
03 20.03 СВ 2 н/о н/о +36.6 +18.6 35 +41 +41 опасность
перегрева
1008.0 1006.8
04 20.03 СВ 3 н/о н/о +38.2 +18.6 32 +42 +42 опасность
перегрева
1007.3 1006.1
06 20.03 СЗ 6 н/о н/о +37.0 +19.9 37 +43 +43 опасность
перегрева
1005.8 1004.6
07 20.03 СЗ 7 н/о н/о +34.8 +22.5 49 +44 +44 опасность
перегрева
1005.5 1004.3
09 20.03 З 7 н/о н/о +33.5 +21.3 49 +41 +41 опасность
перегрева
1005.4 1004.2
10 20.03 СЗ 5 н/о н/о +31.3 +23.1 62 +42 +42 опасность
перегрева
1005.5 1004.3
12 20.03 СВ 2 н/о н/о +29.5 +24.1 73 +41 +41 опасность
перегрева
1007.5 1006.3
13 20.03 С 2 н/о н/о +28.9 +24.2 76 +40 +40 очень
душно
1007.8 1006.6 +38.9
15 20.03 З 5 н/о н/о +28.3 +20.1 61 +35 +35 очень
душно
1007.3 1006.1
16 20.03 З 4 н/о н/о +27.2 +19.8 64 +33 +33 очень
душно
1006.9 1005.7
18 20.03 З 4 н/о н/о +26.3 +19.2 65 +32 +32 очень
душно
1006.5 1005.3
19 20.03 ЮЗ 4 н/о н/о +26.4 +18.5 62 +31 +31 душно 1006.1 1004.9
21 20.03 ЮЗ 6 н/о н/о +26.1 +16.1 54 +29 +29 жарко 1006.1 1004.9
22 20.03 ЮЗ 6 н/о н/о +25.3 +15.3 54 +28 +28 жарко 1006.3 1005.1
00 21.03 Ю 6 н/о н/о +26.7 +15.7 51 +30 +30 душно 1007.5 1006.3
01 21.03 Ю 6 н/о н/о +29.4 +15.1 42 +32 +32 душно 1007.9 1006.7 +25.0
03 21.03 Ю 5 н/о н/о +33.9 +15.4 33 +36 +36 душно 1007.2 1006.0
04 21.03 Ю 5 н/о н/о +35.8 +15.0 29 +37 +37 душно 1006.5 1005.3
06 21.03 З 6 н/о н/о +35.4 +18.5 37 +40 +40 очень
душно
1005.2 1004.0
07 21.03 З 7 н/о н/о +35.9 +20.6 41 +42 +42 опасность
перегрева
1005.0 1003.8
09 21.03 З 8 н/о н/о +33.5 +19.9 45 +40 +40 очень
душно
1004.4 1003.2
10 21.03 ЮЗ 8 н/о н/о +33.1 +16.0 36 +36 +36 очень
душно
1005.0 1003.8
12 21.03 ЮЗ 8 н/о н/о +29.9 +18.3 50 +35 +35 очень
душно
1007.3 1006.1
13 21.03 ЮЗ 7 н/о н/о +28.9 +18.7 54 +34 +34 очень
душно
1007.7 1006.5 +37.3
15 21.03 Ю 7 н/о н/о +28.7 +15.2 44 +31 +31 жарко 1007.9 1006.7
16 21.03 Ю 7 н/о н/о +27.4 +14.1 44 +30 +30 жарко 1007.7 1006.5
18 21.03 Ю 7 н/о н/о +25.6 +13.5 47 +28 +28 жарко 1006.7 1005.5
19 21.03 Ю 6 н/о н/о +25.1 +13.6 49 +27 +27 жарко 1006.6 1005.4
21 21.03 Ю 6 н/о н/о +24.1 +13.9 53 +26 +26 жарко 1006.2 1005.0
22 21.03 Ю 6 н/о н/о +23.6 +13.8 54 +26 +26 жарко 1006.7 1005.5
00 22.03 Ю 6 н/о н/о +25.0 +14.2 51 +27 +27 жарко 1007.9 1006.7
01 22.03 Ю 7 н/о н/о +28.3 +14.5 43 +31 +31 душно 1007.9 1006.7 +23.5
03 22.03 Ю 4 н/о н/о +32.7 +16.9 39 +36 +36 очень
душно
1007.2 1006.0
04 22.03 Ю 3 н/о н/о +34.1 +18.2 39 +38 +38 очень
душно
1006.2 1005.0
06 22.03 С 3 н/о н/о +31.9 +20.8 52 +39 +39 очень
душно
1005.3 1004.1
07 22.03 З 4 н/о н/о +32.7 +21.2 51 +40 +40 очень
душно
1004.6 1003.4
09 22.03 Ю 5 н/о н/о +30.0 +21.9 62 +39 +39 очень
душно
1004.9 1003.7
10 22.03 СВ 8 н/о н/о +29.4 +21.9 64 +38 +38 очень
душно
1005.5 1004.3
12 22.03 В 7 н/о н/о +25.8 +23.7 88 +35 +35 очень
душно
1006.7 1005.5
13 22.03 В 8 н/о {туман} н/о +26.8 +23.5 82 +36 +36 очень
душно
1006.4 1005.2 +35.2
15 22.03 В 9 н/о н/о +26.0 +22.7 82 +34 +34 очень
душно
1006.9 1005.7
16 22.03 Ю 6 н/о н/о +26.4 +21.6 75 +34 +34 очень
душно
1006.4 1005.2
18 22.03 Ю 5 н/о н/о +25.9 +22.4 81 +34 +34 очень
душно
1005.5 1004.3
19 22.03 Ю 4 н/о н/о +25.6 +22.9 85 +34 +34 очень
душно
1005.3 1004.1
21 22.03 Ю 5 н/о н/о +25.7 +22.6 83 +34 +34 очень
душно
1005.4 1004.2
22 22.03 Ю 5 н/о н/о +25.9 +22.4 81 +34 +34 очень
душно
1005.8 1004.6
00 23.03 Ю 7 н/о н/о +26.6 +18.7 62 +32 +32 очень
душно
1006.5 1005.3
01 23.03 Ю 6 н/о н/о +28.7 +19.6 58 +35 +35 очень
душно
1006.7 1005.5 +25.0
03 23.03 ЮВ 6 н/о н/о +32.8 +21.3 51 +41 +41 опасность
перегрева
1006.0 1004.8
04 23.03 ЮВ 5 н/о н/о +32.7 +21.5 52 +41 +41 опасность
перегрева
1005.2 1004.0
06 23.03 З 6 н/о н/о +30.0 +22.9 66 +40 +40 очень
душно
1003.8 1002.6
07 23.03 СЗ 5 н/о в посл. час дождь {туман} н/о +29.8 +22.8 66 +39 +39 очень
душно
1003.4 1002.2
09 23.03 З 6 н/о н/о +31.4 +21.3 55 +39 +39 очень
душно
1003.1 1001.9
10 23.03 З 7 н/о {туман} н/о +29.1 +23.1 70 +39 +39 очень
душно
1003.3 1002.1
12 23.03 В 2 н/о н/о +28.7 +23.8 75 +40 +40 очень
душно
1005.3 1004.1
13 23.03 В 4 н/о {туман} н/о +28.1 +24.1 79 +39 +39 очень
душно
1005.9 1004.7 +34.5
15 23.03 С 2 н/о н/о +26.7 +23.4 82 +36 +36 очень
душно
1005.9 1004.7
16 23.03 З 3 н/о н/о +26.6 +23.3 82 +36 +36 очень
душно
1005.7 1004.5
18 23.03 ЮЗ 4 н/о н/о +26.0 +17.1 58 +30 +30 душно 1005.4 1004.2
19 23.03 ЮЗ 4 н/о н/о +26.2 +16.2 54 +30 +30 душно 1005.4 1004.2
21 23.03 Ю 5 н/о н/о +25.8 +16.1 55 +29 +29 душно 1005.4 1004.2
22 23.03 Ю 5 н/о н/о +25.2 +17.1 61 +29 +29 душно 1005.8 1004.6
00 24.03 Ю 4 н/о н/о +26.8 +19.9 66 +33 +33 очень
душно
1006.9 1005.7
01 24.03 ЮВ 6 н/о н/о +29.5 +21.2 61 +37 +37 очень
душно
1007.4 1006.2 +25.2
03 24.03 Ю 5 н/о н/о +31.4 +21.0 54 +39 +39 очень
душно
1007.3 1006.1

 

Местоположение метеостанции Onslow Airport (Западная Австралия, Австралия): широта -21.67 долгота 115.12 высота над уровнем моря 4 м.

В архиве по умолчанию представлена погода в Onslow Airport за последнюю неделю. Архивные данные за месяц целиком и за предыдущие месяцы, начиная с января 2011 года, Вы можете получить, выбрав интересующий диапазон дат из раскрывающегося списка и нажав кнопку "Ввод!".

Внимание! Время в таблицах - всемирное. Для получения местного времени необходимо прибавить поправку, которая в Onslow Airport равна 8 ч.

Смотрите также архив погоды в соседних городах и на ближайших метеорологических станциях:

Погода в Thevenard Island (Западная Австралия, Австралия) (27 км)
Погода в Barrow Island Airport (Западная Австралия, Австралия) (93 км)
Погода в Mardie (Западная Австралия, Австралия) (104 км)
Погода в Varanus Island (Западная Австралия, Австралия) (123 км)
Погода в Learmonth Airport (Западная Австралия, Австралия) (124 км)
Погода в Karratha Aero (Западная Австралия, Австралия) (201 км)
Погода в Roebourne Aero (Западная Австралия, Австралия) (234 км)
Погода в Paraburdoo Aero (Западная Австралия, Австралия) (318 км)
Погода в Carnarvon Airport (Западная Австралия, Австралия) (387 км)
Погода в Port Hedland Apardoo (Западная Австралия, Австралия) (392 км)

Пояснения к столбцам:

Ветер - указаны скорость ветра в м/с - средняя за 10 мин, порывы в срок и между сроками (в фигурных скобках) и направление, откуда дует ветер: С - северный, СВ - северо-восточный, В - восточный, ЮВ - юго-восточный, Ю - южный, ЮЗ - юго-западный, З - западный, СЗ - северо-западный.
Видимость - горизонтальная дальность видимости в метрах или километрах. При видимости от 1 до 10 км при отсутствии осадков обычно наблюдается дымка, при ухудшении видимости до 1 км и менее - туман. В сухую погоду видимость может ухудшаться дымом, пылью или мглою.
Явления - указаны атмосферные явления, наблюдавшиеся в срок или в последний час перед сроком; фигурными скобками обозначены явления, наблюдавшиеся между сроками (за 1-3 часа до срока); квадратными скобками обозначены град или гололедные отложения с указанием их диаметра в мм.
Облачность - указаны через наклонную черту общая и нижняя облачность в баллах и высота нижней границы облаков в метрах; квадратными скобками обозначены формы облаков: Ci - перистые, Cs - перисто-слоистые, Cc - перисто-кучевые, Ac - высококучевые, As - высокослоистые, Sc - слоисто-кучевые, Ns - слоисто-дождевые, Cu - кучевые, Cb - кучево-дождевые. Подробнее классификацию облаков см. в Атласе облаков (PDF).
T - Температура воздуха - температура, измеренная на высоте 2 м над землей.
Td - Температура точки росы - температура, при понижении до которой содержащийся в воздухе водяной пар достигнет насыщения.
f - Относительная влажность воздуха - влажноcть воздуха, измеренная на высоте 2 м над землей.
Te - Эффективная температура - температура, которую ощущает одетый по сезону человек в тени. Характеристика душности погоды. При расчете учитывается влияние влажности воздуха и скорости ветра на теплоощущения человека.
Tes - Эффективная температура на солнце - температура, которую ощущает человек, с поправкой на солнечный нагрев. Характеристика знойности погоды. Зависит от высоты солнца над горизонтом, облачности и скорости ветра. Ночью, в пасмурную погоду, а также при ветре 12 м/с и более поправка равна нулю.
P - Атмосферное давление - приведенное к уровню моря атмосферное давление.
Po - Атмосферное давление - измеренное на уровне метеостанции атмосферное давление.
Tmin - Минимальная температура - минимум температуры воздуха на высоте 2 м над землей.
Tmax - Максимальная температура - максимум температуры воздуха на высоте 2 м над землей.
R - Количество осадков - Количество выпавших осадков, мм. При наведении курсора мыши на число - период времени, за который выпало указанное количество осадков.
S - Снежный покров - Высота снежного покрова, см. При наведении курсора мыши на число - состояние снежного покрова и степень покрытия местности в баллах.